EW0415 Weather Reports


time (UTC)temp
F
wind
direction
speed
knots
gust
knots
rain 1hr
in
rain 24hr
in
rain mn
in
humidity
%
barometer
mb
20260831222016 63 340 3.5 12.2 0.00 0.00 0.00 56 1020.1
20260831221536 62 11 2.6 7.8 0.00 0.00 0.00 56 1020.1
20260831221015 62 330 1.7 7.0 0.00 0.00 0.00 57 1020.1
20260831220515 62 342 2.6 7.8 0.00 0.00 0.00 58 1020.2
20260831220035 61 5 2.6 7.8 0.00 0.00 0.00 59 1020.2
20260831215516 60 346 1.7 7.8 0.00 0.00 0.00 60 1020.2
20260831215022 60 355 1.7 7.8 0.00 0.00 0.00 60 1020.1
20260831214559 59 343 1.7 7.0 0.00 0.00 0.00 60 1020.2
20260831214019 59 360 1.7 7.0 0.00 0.00 0.00 60 1020.0
20260831213520 59 355 1.7 7.0 0.00 0.00 0.00 60 1020.1
20260831213033 59 355 2.6 7.0 0.00 0.00 0.00 61 1020.0
20260831212519 59 349 1.7 7.0 0.00 0.00 0.00 61 1020.2
20260831212016 59 345 1.7 7.0 0.00 0.00 0.00 61 1020.1
20260831211534 58 347 2.6 7.0 0.00 0.00 0.00 61 1020.0
20260831211018 58 9 1.7 6.1 0.00 0.00 0.00 61 1020.0
20260831210515 58 5 1.7 6.1 0.00 0.00 0.00 61 1020.1
20260831210031 58 9 1.7 6.1 0.00 0.00 0.00 61 1020.1
20260831205515 58 360 1.7 6.1 0.00 0.00 0.00 62 1020.1
20260831205021 58 355 1.7 6.1 0.00 0.00 0.00 62 1020.1
20260831204533 58 9 0.9 4.3 0.00 0.00 0.00 62 1020.2
20260831204018 58 360 0.9 7.0 0.00 0.00 0.00 62 1020.3
20260831203519 58 0 1.7 7.0 0.00 0.00 0.00 62 1020.3
20260831203031 58 355 0.9 4.3 0.00 0.00 0.00 62 1020.3
20260831202518 58 360 1.7 4.3 0.00 0.00 0.00 61 1020.3
20260831202022 58 360 0.9 4.3 0.00 0.00 0.00 61 1020.3
20260831201537 58 360 0.9 3.5 0.00 0.00 0.00 61 1020.3
20260831201016 58 360 0.9 3.5 0.00 0.00 0.00 61 1020.4
20260831200517 58 360 0.9 4.3 0.00 0.00 0.00 61 1020.4
20260831200041 58 360 0.9 4.3 0.00 0.00 0.00 60 1020.5
20260831195519 58 355 0.9 4.3 0.00 0.00 0.00 60 1020.5
20260831195019 59 355 1.7 5.2 0.00 0.00 0.00 60 1020.5
20260831194534 59 355 2.6 7.0 0.00 0.00 0.00 60 1020.6
20260831194017 59 9 1.7 7.0 0.00 0.00 0.00 60 1020.5
20260831193518 59 9 1.7 7.8 0.00 0.00 0.00 60 1020.5
20260831193036 59 355 1.7 7.8 0.00 0.00 0.00 60 1020.6
20260831192515 58 355 1.7 7.0 0.00 0.00 0.00 60 1020.6
20260831192017 59 352 1.7 4.3 0.00 0.00 0.00 60 1020.6
20260831191535 59 348 1.7 5.2 0.00 0.00 0.00 60 1020.7
20260831191019 59 348 2.6 7.0 0.00 0.00 0.00 59 1020.6
20260831190519 59 342 1.7 7.0 0.00 0.00 0.00 59 1020.7
20260831190053 59 340 1.7 7.0 0.00 0.00 0.00 59 1020.7
20260831185516 59 334 0.9 8.7 0.00 0.00 0.00 59 1020.9
20260831185016 59 340 1.7 8.7 0.00 0.00 0.00 59 1020.9
20260831184532 59 333 2.6 8.7 0.00 0.00 0.00 58 1020.9
20260831184015 59 346 1.7 8.7 0.00 0.00 0.00 58 1020.9
20260831183515 59 15 1.7 8.7 0.00 0.00 0.00 58 1021.0
20260831183049 59 350 3.5 7.0 0.00 0.00 0.00 58 1021.2
20260831182522 59 343 1.7 7.0 0.00 0.00 0.00 58 1021.3
20260831182019 59 9 2.6 6.1 0.00 0.00 0.00 58 1021.5
20260831181535 59 9 1.7 7.0 0.00 0.00 0.00 58 1021.5
20260831181017 59 355 1.7 7.0 0.00 0.00 0.00 58 1021.6
20260831180517 59 352 2.6 7.0 0.00 0.00 0.00 57 1021.6
20260831180035 59 355 1.7 7.0 0.00 0.00 0.00 57 1021.7
20260831175517 59 13 3.5 7.0 0.00 0.00 0.00 57 1021.7
20260831175017 59 9 1.7 7.8 0.00 0.00 0.00 57 1021.6
20260831174531 59 11 2.6 7.8 0.00 0.00 0.00 57 1021.8
20260831174018 60 17 1.7 7.0 0.00 0.00 0.00 57 1021.8
20260831173515 60 9 2.6 7.0 0.00 0.00 0.00 57 1021.9
20260831173034 60 352 1.7 7.0 0.00 0.00 0.00 56 1022.0
20260831172520 60 348 2.6 6.1 0.00 0.00 0.00 56 1022.1
20260831172019 60 344 1.7 8.7 0.00 0.00 0.00 56 1022.2
20260831171537 60 23 1.7 8.7 0.00 0.00 0.00 56 1022.2
20260831171020 60 5 2.6 7.0 0.00 0.00 0.00 56 1022.3
20260831170517 60 0 1.7 7.0 0.00 0.00 0.00 56 1022.2
20260831170035 60 9 1.7 7.8 0.00 0.00 0.00 56 1022.5
20260831165515 60 11 1.7 7.8 0.00 0.00 0.00 56 1022.3
20260831165015 60 12 1.7 7.0 0.00 0.00 0.00 56 1022.3
20260831164533 60 14 2.6 7.0 0.00 0.00 0.00 56 1022.6
20260831164020 59 21 1.7 7.0 0.00 0.00 0.00 57 1022.6
20260831163521 59 24 0.9 4.3 0.00 0.00 0.00 57 1022.6
20260831163041 59 24 0.9 7.0 0.00 0.00 0.00 57 1022.5
20260831162519 59 26 1.7 7.0 0.00 0.00 0.00 58 1022.5
20260831162019 59 28 0.9 7.0 0.00 0.00 0.00 58 1022.8
20260831161535 59 36 0.9 4.3 0.00 0.00 0.00 58 1022.8
20260831161017 59 36 0.9 5.2 0.00 0.00 0.00 58 1022.9
20260831160516 59 37 1.7 5.2 0.00 0.00 0.00 58 1023.0
20260831160043 59 38 1.7 4.3 0.00 0.00 0.00 58 1023.1
20260831155519 59 0 0.0 3.5 0.00 0.00 0.00 58 1023.2
20260831155019 59 38 0.9 3.5 0.00 0.00 0.00 58 1023.2
20260831154612 59 38 0.9 3.5 0.00 0.00 0.00 58 1023.3
20260831154015 59 38 0.9 3.5 0.00 0.00 0.00 58 1023.4
20260831153516 59 38 0.9 2.6 0.00 0.00 0.00 58 1023.5
20260831153034 59 38 0.0 5.2 0.00 0.00 0.00 58 1023.6
20260831152521 59 38 0.9 5.2 0.00 0.00 0.00 58 1023.7
20260831152015 59 38 0.9 5.2 0.00 0.00 0.00 59 1023.7
20260831151537 58 44 0.9 3.5 0.00 0.00 0.00 59 1023.7
20260831151018 58 44 0.9 3.5 0.00 0.00 0.00 59 1023.6
20260831150521 58 44 0.9 3.5 0.00 0.00 0.00 60 1023.7
20260831150033 57 44 0.9 3.5 0.00 0.00 0.00 60 1023.9
20260831145520 57 0 0.9 4.3 0.00 0.00 0.00 61 1023.9
20260831145018 57 0 0.9 4.3 0.00 0.00 0.00 62 1023.9
20260831144533 56 46 0.9 3.5 0.00 0.00 0.00 63 1024.0
20260831144016 56 0 0.0 2.6 0.00 0.00 0.00 63 1024.0
20260831143516 55 46 0.0 1.7 0.00 0.00 0.00 63 1024.1
20260831143032 55 46 0.0 2.6 0.00 0.00 0.00 64 1024.3
20260831142517 55 0 0.0 2.6 0.00 0.00 0.00 64 1024.2
20260831142021 54 46 0.9 2.6 0.00 0.00 0.00 64 1024.3
20260831141535 54 46 0.0 2.6 0.00 0.00 0.00 63 1024.5
20260831141015 54 46 0.0 2.6 0.00 0.00 0.00 63 1024.4
20260831140519 54 0 0.0 1.7 0.00 0.00 0.00 62 1024.5
20260831140039 54 0 0.0 0.0 0.00 0.00 0.00 61 1024.7
20260831135516 55 0 0.0 0.0 0.00 0.00 0.00 60 1024.7
20260831135023 55 0 0.0 0.0 0.00 0.00 0.00 59 1024.8
20260831134533 56 0 0.0 0.0 0.00 0.00 0.00 59 1024.8
20260831134016 56 0 0.0 0.0 0.00 0.00 0.00 58 1025.1
20260831133518 57 0 0.0 0.0 0.00 0.00 0.00 57 1025.2
20260831133035 57 0 0.0 0.0 0.00 0.00 0.00 57 1025.3
20260831132515 58 0 0.0 0.0 0.00 0.00 0.00 56 1025.5
20260831132016 58 0 0.0 0.0 0.00 0.00 0.00 55 1025.5
20260831131541 58 0 0.0 0.0 0.00 0.00 0.00 55 1025.5
20260831131020 59 0 0.0 0.0 0.00 0.00 0.00 54 1025.6
20260831130519 59 0 0.0 1.7 0.00 0.00 0.00 55 1025.5
20260831130038 59 0 0.0 1.7 0.00 0.00 0.00 55 1025.5
20260831125520 59 46 0.0 1.7 0.00 0.00 0.00 55 1025.5
20260831125019 60 0 0.0 1.7 0.00 0.00 0.00 54 1025.4
20260831124544 60 0 0.0 2.6 0.00 0.00 0.00 54 1025.4
20260831124018 60 46 0.0 2.6 0.00 0.00 0.00 54 1025.5
20260831123518 60 46 0.9 3.5 0.00 0.00 0.00 54 1025.6
20260831123034 60 46 0.9 3.5 0.00 0.00 0.00 54 1025.7
20260831122518 60 46 1.7 3.5 0.00 0.00 0.00 54 1025.7
20260831122017 60 0 0.0 3.5 0.00 0.00 0.00 54 1025.6
20260831121535 60 46 0.9 3.5 0.00 0.00 0.00 54 1025.5
20260831121019 61 0 0.9 5.2 0.00 0.00 0.00 54 1025.4
20260831120519 61 0 0.9 5.2 0.00 0.00 0.00 54 1025.3
20260831120051 61 46 0.9 5.2 0.00 0.00 0.00 54 1025.5
20260831115524 61 49 0.9 4.3 0.00 0.00 0.00 54 1025.6
20260831115016 61 0 0.9 4.3 0.00 0.00 0.00 53 1025.6
20260831114534 61 50 1.7 5.2 0.00 0.00 0.00 53 1025.5
20260831114018 61 90 0.9 5.2 0.00 0.00 0.00 53 1025.5
20260831113516 61 88 1.7 5.2 0.00 0.00 0.00 53 1025.4
20260831113032 62 92 0.9 5.2 0.00 0.00 0.00 53 1025.3
20260831112515 62 92 0.9 6.1 0.00 0.00 0.00 53 1025.5
20260831112014 62 94 0.9 6.1 0.00 0.00 0.00 53 1025.6
20260831111535 62 92 0.9 6.1 0.00 0.00 0.00 53 1025.6
20260831111018 62 95 1.7 5.2 0.00 0.00 0.00 53 1025.6
20260831110518 62 96 0.9 5.2 0.00 0.00 0.00 53 1025.7
20260831110035 62 97 0.9 5.2 0.00 0.00 0.00 53 1025.8
20260831105518 62 96 0.9 6.1 0.00 0.00 0.00 53 1025.6
20260831105016 62 96 0.9 6.1 0.00 0.00 0.00 53 1025.9
20260831104531 62 0 0.9 5.2 0.00 0.00 0.00 53 1025.8
20260831104016 62 98 0.9 3.5 0.00 0.00 0.00 53 1025.9
20260831103517 62 97 0.0 2.6 0.00 0.00 0.00 53 1025.9
20260831103032 62 0 0.0 2.6 0.00 0.00 0.00 53 1025.9
20260831102520 62 93 0.0 3.5 0.00 0.00 0.00 53 1025.8
20260831102017 62 0 0.0 3.5 0.00 0.00 0.00 53 1026.0
20260831101533 62 95 0.9 3.5 0.00 0.00 0.00 53 1025.9
20260831101018 62 96 0.0 3.5 0.00 0.00 0.00 53 1026.1
20260831100522 63 91 1.7 3.5 0.00 0.00 0.00 53 1026.0
20260831100038 63 93 0.9 3.5 0.00 0.00 0.00 53 1026.2
20260831095516 63 94 0.0 3.5 0.00 0.00 0.00 53 1026.2
20260831095018 63 94 0.9 3.5 0.00 0.00 0.00 52 1026.4
20260831094539 63 0 0.0 1.7 0.00 0.00 0.00 52 1026.3
20260831094018 63 0 0.0 3.5 0.00 0.00 0.00 51 1026.4
20260831093518 63 96 0.0 3.5 0.00 0.00 0.00 51 1026.4
20260831093033 63 96 0.9 3.5 0.00 0.00 0.00 51 1026.2
20260831092519 63 96 0.9 2.6 0.00 0.00 0.00 50 1026.1
20260831092018 64 98 0.0 1.7 0.00 0.00 0.00 50 1026.2
20260831091543 64 0 0.0 0.0 0.00 0.00 0.00 49 1026.3
20260831091021 65 0 0.0 0.0 0.00 0.00 0.00 49 1026.1
20260831090519 65 0 0.0 0.0 0.00 0.00 0.00 48 1026.1
20260831090039 66 0 0.0 0.0 0.00 0.00 0.00 49 1026.2
20260831085521 66 0 0.0 0.0 0.00 0.00 0.00 48 1026.2
20260831085015 66 0 0.0 0.0 0.00 0.00 0.00 48 1026.3
20260831084535 67 0 0.0 0.0 0.00 0.00 0.00 48 1026.2
20260831084019 67 0 0.0 0.0 0.00 0.00 0.00 47 1026.2
20260831083520 68 0 0.0 0.0 0.00 0.00 0.00 47 1026.2
20260831083038 68 0 0.0 0.0 0.00 0.00 0.00 47 1026.3
20260831082516 68 0 0.0 1.7 0.00 0.00 0.00 46 1026.3
20260831082016 69 0 0.0 2.6 0.00 0.00 0.00 46 1026.3
20260831081534 69 0 0.0 2.6 0.00 0.00 0.00 45 1026.2
20260831081018 69 62 0.0 2.6 0.00 0.00 0.00 45 1026.3
20260831080516 70 61 0.0 4.3 0.00 0.00 0.00 44 1026.2
20260831080040 70 63 0.9 4.3 0.00 0.00 0.00 44 1026.3
20260831075520 70 75 1.7 3.5 0.00 0.00 0.00 44 1026.2
20260831075020 71 68 0.9 6.1 0.00 0.00 0.00 43 1026.1
20260831074536 71 67 1.7 6.1 0.00 0.00 0.00 43 1026.1
20260831074019 71 69 1.7 4.3 0.00 0.00 0.00 42 1026.0
20260831073517 71 70 1.7 4.3 0.00 0.00 0.00 42 1026.1
20260831073038 72 82 1.7 3.5 0.00 0.00 0.00 42 1026.2
20260831072516 72 83 0.9 7.0 0.00 0.00 0.00 42 1026.2
20260831072017 72 85 1.7 8.7 0.00 0.00 0.00 42 1026.2
20260831071542 72 44 2.6 8.7 0.00 0.00 0.00 42 1026.1
20260831071016 72 336 0.9 4.3 0.00 0.00 0.00 42 1026.2
20260831070519 73 355 0.9 4.3 0.00 0.00 0.00 42 1026.2
20260831070035 73 352 0.9 5.2 0.00 0.00 0.00 42 1026.4
20260831065520 73 355 1.7 5.2 0.00 0.00 0.00 40 1026.2
20260831065019 73 355 1.7 7.0 0.00 0.00 0.00 40 1026.5
20260831064531 73 350 1.7 7.0 0.00 0.00 0.00 42 1026.5
20260831064018 73 350 1.7 7.0 0.00 0.00 0.00 41 1026.6
20260831063518 73 350 2.6 7.0 0.00 0.00 0.00 41 1026.8
20260831063034 73 339 2.6 5.2 0.00 0.00 0.00 41 1026.8
20260831062518 73 336 2.6 5.2 0.00 0.00 0.00 41 1027.0
20260831062022 74 315 0.9 5.2 0.00 0.00 0.00 41 1027.0
20260831061535 74 346 2.6 7.0 0.00 0.00 0.00 41 1027.0
20260831061019 74 60 1.7 7.0 0.00 0.00 0.00 40 1027.2
20260831060517 74 57 2.6 8.7 0.00 0.00 0.00 37 1027.2
20260831060040 74 101 2.6 8.7 0.00 0.00 0.00 38 1027.1
20260831055521 74 53 2.6 8.7 0.00 0.00 0.00 36 1027.2
20260831055018 74 28 1.7 7.0 0.00 0.00 0.00 37 1027.2
20260831054535 74 348 2.6 7.0 0.00 0.00 0.00 37 1027.2
20260831054023 74 28 2.6 9.6 0.00 0.00 0.00 38 1027.3
20260831053516 74 351 1.7 9.6 0.00 0.00 0.00 38 1027.2
20260831053034 74 92 2.6 7.8 0.00 0.00 0.00 38 1027.3
20260831052521 74 150 2.6 7.8 0.00 0.00 0.00 37 1027.3
20260831052018 74 33 2.6 7.8 0.00 0.00 0.00 39 1027.4
20260831051550 74 38 2.6 6.1 0.00 0.00 0.00 39 1027.6
20260831051016 74 30 2.6 7.8 0.00 0.00 0.00 38 1027.5
20260831050519 74 63 2.6 7.8 0.00 0.00 0.00 37 1027.7
20260831050036 74 32 1.7 8.7 0.00 0.00 0.00 37 1027.8
20260831045519 74 355 2.6 8.7 0.00 0.00 0.00 37 1027.8
20260831045019 74 79 1.7 9.6 0.00 0.00 0.00 37 1027.8
20260831044537 74 85 3.5 9.6 0.00 0.00 0.00 36 1027.9
20260831044016 74 29 1.7 5.2 0.00 0.00 0.00 37 1027.9
20260831043518 74 27 1.7 7.0 0.00 0.00 0.00 37 1027.9
20260831043034 74 28 1.7 7.0 0.00 0.00 0.00 35 1028.1
20260831042519 74 29 3.5 7.8 0.00 0.00 0.00 35 1028.3
20260831042017 74 28 2.6 7.8 0.00 0.00 0.00 36 1028.4
20260831041534 75 22 2.6 8.7 0.00 0.00 0.00 36 1028.4
20260831041019 74 355 2.6 8.7 0.00 0.00 0.00 37 1028.3
20260831040518 74 360 3.5 8.7 0.00 0.00 0.00 37 1028.4
20260831040037 74 335 1.7 7.8 0.00 0.00 0.00 38 1028.5
20260831035520 74 339 2.6 7.8 0.00 0.00 0.00 39 1028.5
20260831035020 74 340 2.6 7.8 0.00 0.00 0.00 38 1028.6
20260831034542 74 341 1.7 7.8 0.00 0.00 0.00 37 1029.0
20260831034019 74 334 1.7 7.0 0.00 0.00 0.00 38 1029.0
20260831033518 74 338 1.7 7.0 0.00 0.00 0.00 40 1029.1
20260831033035 74 340 2.6 7.8 0.00 0.00 0.00 39 1029.2
20260831032516 74 338 1.7 7.8 0.00 0.00 0.00 40 1029.4
20260831032016 74 333 2.6 7.8 0.00 0.00 0.00 39 1029.6
20260831031536 74 348 1.7 7.8 0.00 0.00 0.00 40 1029.6
20260831031019 73 360 1.7 7.8 0.00 0.00 0.00 41 1029.8
20260831030518 73 22 1.7 7.8 0.00 0.00 0.00 42 1029.9
20260831030035 73 26 2.6 7.8 0.00 0.00 0.00 45 1030.0
20260831025518 73 26 1.7 7.0 0.00 0.00 0.00 45 1030.1
20260831025015 73 355 1.7 7.0 0.00 0.00 0.00 46 1030.2
20260831024536 73 355 1.7 5.2 0.00 0.00 0.00 47 1030.3
20260831024020 72 355 1.7 5.2 0.00 0.00 0.00 46 1030.5
20260831023520 72 355 2.6 5.2 0.00 0.00 0.00 46 1030.6
20260831023035 72 360 1.7 8.7 0.00 0.00 0.00 46 1030.7
20260831022516 72 17 2.6 8.7 0.00 0.00 0.00 45 1030.8
20260831022016 72 30 3.5 8.7 0.00 0.00 0.00 44 1031.0
20260831021534 71 302 2.6 7.8 0.00 0.00 0.00 47 1031.0
20260831021020 71 205 1.7 4.3 0.00 0.00 0.00 50 1031.0
20260831020516 70 205 1.7 4.3 0.00 0.00 0.00 51 1031.1
20260831020035 70 195 0.0 4.3 0.00 0.00 0.00 56 1031.1
20260831015518 69 195 0.0 4.3 0.00 0.00 0.00 56 1031.1
20260831015018 69 0 0.0 3.5 0.00 0.00 0.00 58 1031.2
20260831014537 68 192 0.9 3.5 0.00 0.00 0.00 58 1031.4
20260831014020 68 192 0.9 4.3 0.00 0.00 0.00 59 1031.4
20260831013519 67 191 0.9 4.3 0.00 0.00 0.00 61 1031.5
20260831013033 67 190 0.9 2.6 0.00 0.00 0.00 62 1031.5
20260831012519 66 190 0.0 3.5 0.00 0.00 0.00 64 1031.7
20260831012018 66 190 0.9 3.5 0.00 0.00 0.00 65 1031.7
20260831011543 65 190 1.7 3.5 0.00 0.00 0.00 66 1031.7
20260831011015 65 0 0.0 2.6 0.00 0.00 0.00 68 1031.6
20260831010519 64 0 0.0 3.5 0.00 0.00 0.00 68 1031.7
20260831010042 64 184 0.9 3.5 0.00 0.00 0.00 69 1031.8
20260831005520 63 185 0.9 3.5 0.00 0.00 0.00 70 1031.7
20260831005019 63 0 0.0 2.6 0.00 0.00 0.00 71 1031.8
20260831004532 62 184 0.0 2.6 0.00 0.00 0.00 72 1031.9
20260831004023 62 184 0.0 2.6 0.00 0.00 0.00 74 1031.8
20260831003520 61 184 0.9 2.6 0.00 0.00 0.00 75 1031.9
20260831003037 60 0 0.9 2.6 0.00 0.00 0.00 77 1031.9
20260831002518 60 184 0.9 2.6 0.00 0.00 0.00 79 1031.9
20260831002018 59 184 0.0 2.6 0.00 0.00 0.00 80 1031.9
20260831001537 59 184 0.0 2.6 0.00 0.00 0.00 82 1031.9
20260831001021 58 184 0.9 2.6 0.00 0.00 0.00 83 1031.9
20260831000519 58 0 0.9 2.6 0.00 0.00 0.00 84 1031.9
20260831000034 57 190 0.0 2.6 0.00 0.00 0.00 86 1032.0
20260830235519 57 0 0.0 1.7 0.00 0.00 0.00 87 1032.1
20260830235016 57 0 0.0 0.9 0.00 0.00 0.00 88 1032.0
20260830234541 56 0 0.0 1.7 0.00 0.00 0.00 88 1032.0
20260830234016 55 0 0.0 1.7 0.00 0.00 0.00 88 1032.1
20260830233518 55 0 0.0 1.7 0.00 0.00 0.00 89 1032.1
20260830233035 55 0 0.0 1.7 0.00 0.00 0.00 89 1032.2
20260830232516 54 0 0.0 1.7 0.00 0.00 0.00 89 1032.2
20260830232018 54 0 0.0 2.6 0.00 0.00 0.00 89 1032.2
20260830231536 54 193 0.0 2.6 0.00 0.00 0.00 89 1032.3
20260830231021 53 193 0.0 1.7 0.00 0.00 0.00 89 1032.2
20260830230519 53 0 0.0 2.6 0.00 0.00 0.00 89 1032.3
20260830230033 52 0 0.0 2.6 0.00 0.00 0.00 89 1032.2
20260830225516 52 0 0.0 0.0 0.00 0.00 0.00 90 1032.3
20260830225022 51 0 0.0 0.0 0.00 0.00 0.00 89 1032.3
20260830224535 50 0 0.0 0.0 0.00 0.00 0.00 89 1032.3
20260830224019 50 0 0.0 0.0 0.00 0.00 0.00 89 1032.2
20260830223517 49 0 0.0 0.0 0.00 0.00 0.00 89 1032.2
20260830223032 49 0 0.0 0.0 0.00 0.00 0.00 89 1032.2
20260830222516 48 0 0.0 0.0 0.00 0.00 0.00 89 1032.2